EW8103 Weather Reports


Display with metric or nautical units.
time (UTC)temp
F
wind
direction
speed
MPH
gust
MPH
rain 1hr
in
rain 24hr
in
rain mn
in
humidity
%
barometer
mb
20181214190156 29 15 4.0 10.0 0.00 0.00 0.00 91 1019.9
20181214185154 29 0 5.0 11.0 0.00 0.00 0.00 92 1019.9
20181214184153 29 20 6.0 11.0 0.00 0.00 0.00 92 1019.8
20181214183128 29 5 6.0 13.0 0.00 0.00 0.00 92 1019.5
20181214182143 29 25 6.0 13.0 0.00 0.00 0.00 92 1019.4
20181214181128 29 34 6.0 12.0 0.00 0.00 0.00 92 1019.4
20181214180053 29 12 7.0 12.0 0.00 0.00 0.00 92 1019.3
20181214175111 29 10 6.0 11.0 0.00 0.00 0.00 93 1019.1
20181214174035 29 18 5.0 9.0 0.00 0.00 0.00 93 1019.0
20181214173010 29 5 4.0 9.0 0.00 0.00 0.00 93 1018.9
20181214171942 29 40 5.0 10.0 0.00 0.00 0.00 93 1019.0
20181214170921 29 11 5.0 10.0 0.00 0.00 0.00 93 1019.0
20181214165921 29 16 5.0 9.0 0.00 0.00 0.00 92 1018.9
20181214164920 29 24 4.0 10.0 0.00 0.00 0.00 92 1018.6
20181214163932 29 37 4.0 10.0 0.00 0.00 0.00 93 1018.6
20181214162931 30 26 3.0 8.0 0.00 0.00 0.00 92 1018.5
20181214161915 30 10 4.0 8.0 0.00 0.00 0.00 92 1018.3
20181214160841 30 5 3.0 6.0 0.00 0.00 0.00 92 1017.9
20181214155840 30 19 3.0 7.0 0.00 0.00 0.00 92 1017.6
20181214154817 30 11 4.0 7.0 0.00 0.00 0.00 92 1017.4
20181214153804 30 10 3.0 7.0 0.00 0.00 0.00 92 1017.1
20181214152738 31 28 3.0 6.0 0.00 0.00 0.00 92 1017.1
20181214151732 31 19 3.0 7.0 0.00 0.00 0.00 92 1017.0
20181214150714 31 32 2.0 7.0 0.00 0.00 0.00 92 1016.8
20181214145650 31 11 2.0 6.0 0.00 0.00 0.00 92 1016.8
20181214144615 31 346 1.0 4.0 0.00 0.00 0.00 92 1016.6
20181214143618 31 22 2.0 4.0 0.00 0.00 0.00 92 1016.4
20181214142558 31 21 2.0 6.0 0.00 0.00 0.00 92 1016.4
20181214141558 31 24 2.0 6.0 0.00 0.00 0.00 92 1016.4
20181214140600 31 10 2.0 6.0 0.00 0.00 0.00 92 1016.2
20181214135616 31 45 3.0 6.0 0.00 0.00 0.00 93 1016.2
20181214134606 31 22 3.0 7.0 0.00 0.00 0.00 93 1015.9
20181214133533 31 38 3.0 8.0 0.00 0.00 0.00 92 1015.8
20181214132541 32 27 3.0 8.0 0.00 0.00 0.00 92 1015.8
20181214131533 32 28 4.0 8.0 0.00 0.00 0.00 92 1015.7
20181214130517 32 24 2.0 8.0 0.00 0.00 0.00 92 1015.8
20181214125447 32 14 3.0 7.0 0.00 0.00 0.00 92 1015.7
20181214124454 32 32 3.0 8.0 0.00 0.00 0.00 91 1015.6
20181214123443 32 28 4.0 9.0 0.00 0.00 0.00 91 1015.5
20181214122416 32 46 3.0 10.0 0.00 0.00 0.00 91 1015.5
20181214121347 33 9 4.0 10.0 0.00 0.00 0.00 89 1015.5
20181214120316 34 5 5.0 10.0 0.00 0.00 0.00 89 1015.3
20181214115259 33 34 5.0 9.0 0.00 0.00 0.00 88 1015.3
20181214114313 34 5 5.0 9.0 0.00 0.00 0.00 89 1015.3
20181214113324 34 18 5.0 9.0 0.00 0.00 0.00 88 1015.4
20181214112258 33 38 4.0 9.0 0.00 0.00 0.00 88 1015.4
20181214111250 34 22 2.0 8.0 0.00 0.00 0.00 88 1015.3
20181214110219 34 343 2.0 4.0 0.00 0.00 0.00 88 1015.3
20181214105146 34 36 1.0 3.0 0.00 0.00 0.00 87 1015.3
20181214104138 33 76 2.0 6.0 0.00 0.00 0.00 88 1015.3
20181214103147 34 49 3.0 8.0 0.00 0.00 0.00 87 1015.2
20181214102203 34 59 3.0 8.0 0.00 0.00 0.00 86 1015.2
20181214101214 34 17 3.0 7.0 0.00 0.00 0.00 87 1015.3
20181214100210 34 31 2.0 6.0 0.00 0.00 0.00 87 1015.3
20181214095230 32 26 1.0 4.0 0.00 0.00 0.00 89 1015.3
20181214094154 32 54 1.0 4.0 0.00 0.00 0.00 88 1015.2
20181214093118 33 22 2.0 5.0 0.00 0.00 0.00 86 1015.0
20181214092041 34 52 2.0 6.0 0.00 0.00 0.00 85 1014.8
20181214091016 34 57 2.0 6.0 0.00 0.00 0.00 85 1014.5
20181214090000 33 24 1.0 3.0 0.00 0.00 0.00 87 1014.3
20181214084955 32 80 1.0 3.0 0.00 0.00 0.00 88 1014.2
20181214084015 31 71 1.0 5.0 0.00 0.00 0.00 89 1014.1
20181214083036 31 31 2.0 5.0 0.00 0.00 0.00 89 1014.0
20181214082008 30 23 3.0 8.0 0.00 0.00 0.00 90 1013.8
20181214080937 30 5 3.0 8.0 0.00 0.00 0.00 89 1013.7
20181214075914 30 32 1.0 6.0 0.00 0.00 0.00 89 1013.6
20181214074850 29 21 3.0 8.0 0.00 0.00 0.00 90 1013.4
20181214073847 29 350 3.0 8.0 0.00 0.00 0.00 90 1013.0
20181214072814 29 14 3.0 7.0 0.00 0.00 0.00 90 1012.9
20181214071742 29 11 3.0 7.0 0.00 0.00 0.00 90 1012.8
20181214070744 29 13 3.0 6.0 0.00 0.00 0.00 90 1012.8
20181214065722 29 19 1.0 3.0 0.00 0.00 0.00 90 1012.7
20181214064714 29 348 1.0 3.0 0.00 0.00 0.00 90 1012.6
20181214063641 29 9 2.0 4.0 0.00 0.00 0.00 89 1012.3
20181214062649 29 0 2.0 4.0 0.00 0.00 0.00 89 1012.3
20181214061641 29 17 2.0 5.0 0.00 0.00 0.00 89 1012.1
20181214060636 29 355 2.0 5.0 0.00 0.00 0.00 89 1012.2
20181214055649 29 350 2.0 5.0 0.00 0.00 0.00 88 1012.1
20181214054631 29 338 2.0 6.0 0.00 0.00 0.00 88 1012.1
20181214053648 29 15 2.0 6.0 0.00 0.00 0.00 88 1012.0
20181214052646 30 17 2.0 9.0 0.00 0.00 0.00 88 1011.9
20181214051659 29 24 3.0 9.0 0.00 0.00 0.00 88 1011.8
20181214050643 30 0 3.0 8.0 0.00 0.00 0.00 88 1011.8
20181214045619 30 355 3.0 8.0 0.00 0.00 0.00 88 1011.8
20181214044627 29 34 3.0 8.0 0.00 0.00 0.00 88 1011.7
20181214043628 29 5 3.0 7.0 0.00 0.00 0.00 88 1011.6
20181214042609 29 350 2.0 6.0 0.00 0.00 0.00 88 1011.5
20181214041549 29 345 3.0 6.0 0.00 0.00 0.00 88 1011.5
20181214040525 30 325 2.0 6.0 0.00 0.00 0.00 87 1011.4
20181214035504 30 11 2.0 5.0 0.00 0.00 0.00 86 1011.4
20181214034448 30 16 1.0 4.0 0.00 0.00 0.00 85 1011.5
20181214033438 31 327 2.0 3.0 0.00 0.00 0.00 85 1011.3
20181214032455 31 339 2.0 3.0 0.00 0.00 0.00 84 1011.2
20181214031430 32 331 1.0 3.0 0.00 0.00 0.00 83 1011.1
20181214030445 32 53 0.0 0.0 0.00 0.00 0.00 82 1011.1
20181214025412 32 54 0.0 0.0 0.00 0.00 0.00 83 1011.1
20181214024337 32 43 2.0 4.0 0.00 0.00 0.00 83 1011.1
20181214023340 32 0 2.0 4.0 0.00 0.00 0.00 84 1011.0
20181214022402 31 26 3.0 6.0 0.00 0.00 0.00 85 1011.1
20181214021347 31 14 3.0 6.0 0.00 0.00 0.00 85 1011.2
20181214020321 32 11 2.0 6.0 0.00 0.00 0.00 85 1011.1
20181214015316 32 355 3.0 6.0 0.00 0.00 0.00 85 1011.2
20181214014303 32 15 3.0 8.0 0.00 0.00 0.00 85 1011.3
20181214013232 32 21 3.0 8.0 0.00 0.00 0.00 85 1011.2
20181214012158 31 59 4.0 8.0 0.00 0.00 0.00 87 1011.1
20181214011220 31 0 4.0 10.0 0.00 0.00 0.00 88 1011.1
20181214010223 31 29 4.0 10.0 0.00 0.00 0.00 88 1011.1
20181214005237 31 26 3.0 8.0 0.00 0.00 0.00 88 1011.0
20181214004210 32 0 3.0 6.0 0.00 0.00 0.00 87 1010.9
20181214003139 32 14 3.0 6.0 0.00 0.00 0.00 86 1010.8
20181214002119 32 33 3.0 6.0 0.00 0.00 0.00 85 1010.6
20181214001112 33 35 3.0 4.0 0.00 0.00 0.00 85 1010.5
20181214000109 33 22 1.0 3.0 0.00 0.00 0.00 85 1010.5
20181213235107 33 51 0.0 2.0 0.00 0.00 0.00 84 1010.6
20181213234035 33 55 0.0 1.0 0.00 0.00 0.00 84 1010.5
20181213233010 33 55 0.0 4.0 0.00 0.00 0.00 85 1010.4
20181213231942 33 57 2.0 4.0 0.00 0.00 0.00 86 1010.4
20181213230930 32 45 2.0 5.0 0.00 0.00 0.00 87 1010.3
20181213225857 32 22 3.0 7.0 0.00 0.00 0.00 87 1010.3
20181213224821 32 15 3.0 7.0 0.00 0.00 0.00 87 1010.3
20181213223754 32 32 3.0 5.0 0.00 0.00 0.00 86 1010.4
20181213222720 33 13 2.0 5.0 0.00 0.00 0.00 86 1010.4
20181213221735 33 26 2.0 7.0 0.00 0.00 0.00 85 1010.3
20181213220741 32 42 4.0 9.0 0.00 0.00 0.00 85 1009.9
20181213215725 32 40 4.0 9.0 0.00 0.00 0.00 86 1009.9
20181213214744 32 55 4.0 8.0 0.00 0.00 0.00 87 1010.0
20181213213805 32 14 4.0 8.0 0.00 0.00 0.00 87 1009.9
20181213212756 32 28 4.0 8.0 0.00 0.00 0.00 87 1009.9
20181213211754 32 17 4.0 8.0 0.00 0.00 0.00 87 1010.0
20181213210743 32 18 4.0 7.0 0.00 0.00 0.00 86 1009.9
20181213205716 32 5 4.0 8.0 0.00 0.00 0.00 86 1009.7
20181213204643 32 32 3.0 7.0 0.00 0.00 0.00 86 1009.8
20181213203609 32 57 4.0 10.0 0.00 0.00 0.00 86 1009.6
20181213202547 32 19 6.0 10.0 0.00 0.00 0.00 85 1009.2
20181213201521 32 26 4.0 10.0 0.00 0.00 0.00 85 1009.4
20181213200535 32 23 3.0 10.0 0.00 0.00 0.00 84 1009.4
20181213195539 32 30 4.0 10.0 0.00 0.00 0.00 83 1009.2
20181213194602 33 32 3.0 9.0 0.00 0.00 0.00 83 1009.2
20181213193540 33 5 5.0 10.0 0.00 0.00 0.00 82 1009.0
20181213192600 33 32 4.0 10.0 0.00 0.00 0.00 82 1008.9
20181213191612 34 38 3.0 8.0 0.00 0.00 0.00 81 1008.8
20181213190537 34 46 3.0 8.0 0.00 0.00 0.00 81 1008.7